User: anonymous   Login
Location: Unspecified
(0.0000°N, 0.0000°E)
Time: 23:00:56
(UTC+00:00)
Language:

Landsat 4 - Orbit

View from above orbital plane
View from above orbital plane
View from above satellite
View from above satellite

Ground track
Ground track

The orbit data is extracted from the following two-line orbital elements,

1 13367U 82072A   18018.51683611 +.00000492 +00000-0 +29536-4 0  9992
2 13367 098.2609 205.1213 0013008 183.1487 236.9634 15.16218909342963
Epoch (UTC): 18 January 2018 12:24:14
Eccentricity: 0.0013008
inclination: 98.2609°
perigee height: 508 km
apogee height: 526 km
right ascension of ascending node: 205.1213°
argument of perigee: 183.1487°
revolutions per day: 15.16218909
mean anomaly at epoch: 236.9634°
orbit number at epoch: 34296

The dashed part of the orbit path shows where the satellite is in the earth's shadow,  

DLR